FW6726 Weather Reports


Display with metric or nautical units.
time (UTC)temp
F
wind
direction
speed
MPH
gust
MPH
rain 1hr
in
rain 24hr
in
rain mn
in
humidity
%
barometer
mb
20260831110305 66 18 0.0 2.0 0.00 0.00 0.00 75 1014.4
20260831110031 67 8 2.0 2.0 0.00 0.00 0.00 76 1014.3
20260831105306 67 8 1.0 2.0 0.00 0.00 0.00 76 1014.3
20260831104804 67 8 1.0 2.0 0.00 0.00 0.00 77 1014.3
20260831104526 67 8 0.0 2.0 0.00 0.00 0.00 76 1014.2
20260831103804 67 8 1.0 3.0 0.00 0.00 0.00 76 1014.2
20260831103527 67 8 1.0 3.0 0.00 0.00 0.00 76 1014.3
20260831103031 67 6 2.0 3.0 0.00 0.00 0.00 73 1014.3
20260831102524 67 4 0.0 2.0 0.00 0.00 0.00 72 1014.2
20260831101802 67 4 1.0 3.0 0.00 0.00 0.00 69 1014.3
20260831101522 67 4 2.0 3.0 0.00 0.00 0.00 69 1014.4
20260831100803 67 6 2.0 3.0 0.00 0.00 0.00 71 1014.4
20260831100303 67 4 0.0 3.0 0.00 0.00 0.00 68 1014.3
20260831095802 67 4 1.0 3.0 0.00 0.00 0.00 69 1014.3
20260831095301 67 4 2.0 2.0 0.00 0.00 0.00 71 1014.2
20260831094802 67 4 1.0 3.0 0.00 0.00 0.00 72 1014.2
20260831094301 67 4 2.0 3.0 0.00 0.00 0.00 72 1014.1
20260831093801 67 6 0.0 0.0 0.00 0.00 0.00 72 1014.0
20260831093301 67 6 0.0 0.0 0.00 0.00 0.00 71 1014.0
20260831092801 67 6 0.0 0.0 0.00 0.00 0.00 71 1014.0
20260831092301 67 6 0.0 0.0 0.00 0.00 0.00 72 1014.1
20260831091800 67 6 0.0 0.0 0.00 0.00 0.00 71 1014.0
20260831091302 67 6 0.0 0.0 0.00 0.00 0.00 71 1014.0
20260831090802 68 4 0.0 0.0 0.00 0.00 0.00 70 1014.0
20260831090526 68 4 0.0 0.0 0.00 0.00 0.00 71 1014.0
20260831085801 68 4 0.0 0.0 0.00 0.00 0.00 71 1014.0
20260831085306 68 4 0.0 0.0 0.00 0.00 0.00 71 1014.0
20260831084801 67 4 0.0 2.0 0.00 0.00 0.00 70 1014.0
20260831084302 67 4 0.0 3.0 0.00 0.00 0.00 70 1014.0
20260831083801 67 4 2.0 3.0 0.00 0.00 0.00 71 1014.0
20260831083302 67 4 2.0 3.0 0.00 0.00 0.00 70 1014.0
20260831082801 67 4 2.0 3.0 0.00 0.00 0.00 71 1014.1
20260831082306 67 35 2.0 3.0 0.00 0.00 0.00 72 1014.2
20260831081800 67 35 2.0 2.0 0.00 0.00 0.00 75 1014.2
20260831081302 67 35 1.0 3.0 0.00 0.00 0.00 76 1014.2
20260831081016 67 35 0.0 4.0 0.00 0.00 0.00 77 1014.3
20260831080302 67 35 3.0 4.0 0.00 0.00 0.00 77 1014.3
20260831075801 67 24 1.0 3.0 0.00 0.00 0.00 77 1014.2
20260831075301 67 0 2.0 5.0 0.00 0.00 0.00 76 1014.3
20260831074800 67 336 2.0 5.0 0.00 0.00 0.00 75 1014.2
20260831074301 67 87 1.0 3.0 0.00 0.00 0.00 74 1014.3
20260831073800 67 93 2.0 3.0 0.00 0.00 0.00 73 1014.2
20260831073301 67 113 0.0 2.0 0.00 0.00 0.00 73 1014.1
20260831072759 67 155 0.0 2.0 0.00 0.00 0.00 73 1014.0
20260831072301 67 155 0.0 2.0 0.00 0.00 0.00 74 1014.0
20260831071759 68 155 0.0 1.0 0.00 0.00 0.00 73 1014.0
20260831071301 68 155 0.0 2.0 0.00 0.00 0.00 74 1013.9
20260831070759 68 155 1.0 2.0 0.00 0.00 0.00 74 1013.9
20260831070522 68 155 1.0 2.0 0.00 0.00 0.00 73 1013.8
20260831065757 68 155 1.0 2.0 0.00 0.00 0.00 73 1013.9
20260831065258 68 155 0.0 0.0 0.00 0.00 0.00 72 1013.8
20260831064758 68 155 0.0 2.0 0.00 0.00 0.00 72 1013.8
20260831064524 69 155 0.0 2.0 0.00 0.00 0.00 72 1013.7
20260831063757 69 155 0.0 2.0 0.00 0.00 0.00 73 1013.7
20260831063258 69 155 1.0 3.0 0.00 0.00 0.00 73 1013.7
20260831062757 69 155 3.0 3.0 0.00 0.00 0.00 73 1013.6
20260831062258 69 155 0.0 2.0 0.00 0.00 0.00 73 1013.8
20260831061757 69 155 2.0 2.0 0.00 0.00 0.00 73 1013.8
20260831061258 69 154 0.0 1.0 0.00 0.00 0.00 72 1013.8
20260831060756 69 154 1.0 2.0 0.00 0.00 0.00 72 1013.8
20260831060257 70 154 0.0 2.0 0.00 0.00 0.00 73 1013.8
20260831055756 70 154 0.0 2.0 0.00 0.00 0.00 73 1013.8
20260831055257 70 154 1.0 2.0 0.00 0.00 0.00 73 1013.7
20260831055022 70 154 2.0 3.0 0.00 0.00 0.00 72 1013.7
20260831054256 70 155 1.0 3.0 0.00 0.00 0.00 72 1013.8
20260831053756 70 155 2.0 2.0 0.00 0.00 0.00 72 1013.8
20260831053519 70 155 0.0 2.0 0.00 0.00 0.00 71 1013.8
20260831052756 71 155 0.0 0.0 0.00 0.00 0.00 70 1013.8
20260831052258 71 155 0.0 0.0 0.00 0.00 0.00 70 1013.8
20260831051756 71 155 0.0 0.0 0.00 0.00 0.00 70 1013.8
20260831051258 71 155 0.0 0.0 0.00 0.00 0.00 71 1013.9
20260831051016 71 155 0.0 2.0 0.00 0.00 0.00 71 1013.8
20260831050258 71 155 0.0 3.0 0.00 0.00 0.00 71 1013.9
20260831045756 71 155 1.0 3.0 0.00 0.00 0.00 70 1013.9
20260831045257 72 154 0.0 2.0 0.00 0.00 0.00 69 1013.9
20260831044756 73 154 2.0 3.0 0.00 0.00 0.00 69 1013.9
20260831044257 73 154 2.0 3.0 0.00 0.00 0.00 68 1013.8
20260831043755 73 154 0.0 4.0 0.00 0.00 0.00 64 1013.8
20260831043256 74 154 2.0 4.0 0.00 0.00 0.00 60 1013.8
20260831042756 74 128 3.0 4.0 0.00 0.00 0.00 57 1013.8
20260831042257 75 111 4.0 4.0 0.00 0.00 0.00 57 1013.7
20260831041755 75 82 0.0 0.0 0.00 0.00 0.00 57 1013.7
20260831041519 75 82 0.0 0.0 0.00 0.00 0.00 56 1013.6
20260831040753 76 82 0.0 1.0 0.00 0.00 0.00 55 1013.6
20260831040253 76 82 0.0 2.0 0.00 0.00 0.00 54 1013.5
20260831035754 76 82 1.0 2.0 0.00 0.00 0.00 55 1013.4
20260831035253 76 82 1.0 3.0 0.00 0.00 0.00 55 1013.4
20260831034754 76 82 2.0 3.0 0.00 0.00 0.00 55 1013.4
20260831034253 76 82 1.0 3.0 0.00 0.00 0.00 55 1013.4
20260831033753 76 82 2.0 3.0 0.00 0.00 0.00 55 1013.3
20260831033253 77 82 0.0 0.0 0.00 0.00 0.00 54 1013.2
20260831032753 77 82 0.0 1.0 0.00 0.00 0.00 54 1013.1
20260831032252 77 82 1.0 2.0 0.00 0.00 0.00 54 1013.0
20260831031753 77 82 0.0 2.0 0.00 0.00 0.00 54 1013.1
20260831031252 78 82 0.0 1.0 0.00 0.00 0.00 53 1013.0
20260831030753 78 82 0.0 1.0 0.00 0.00 0.00 52 1012.9
20260831030520 78 82 0.0 0.0 0.00 0.00 0.00 52 1012.9
20260831025752 79 82 0.0 0.0 0.00 0.00 0.00 51 1012.9
20260831025515 79 82 0.0 1.0 0.00 0.00 0.00 51 1012.9
20260831025010 79 82 0.0 2.0 0.00 0.00 0.00 51 1012.9
20260831024247 79 82 1.0 2.0 0.00 0.00 0.00 51 1013.0
20260831023745 79 82 0.0 2.0 0.00 0.00 0.00 51 1012.9
20260831023243 80 82 1.0 2.0 0.00 0.00 0.00 49 1012.9
20260831022740 80 82 0.0 1.0 0.00 0.00 0.00 50 1012.9
20260831022238 80 82 0.0 1.0 0.00 0.00 0.00 49 1012.9
20260831021735 80 82 0.0 2.0 0.00 0.00 0.00 48 1013.0
20260831021231 80 82 1.0 2.0 0.00 0.00 0.00 48 1013.1
20260831020731 80 82 0.0 2.0 0.00 0.00 0.00 48 1013.0
20260831020231 80 82 0.0 2.0 0.00 0.00 0.00 48 1013.1
20260831015731 80 82 1.0 2.0 0.00 0.00 0.00 48 1013.1
20260831015231 80 82 0.0 1.0 0.00 0.00 0.00 49 1013.1
20260831014731 80 82 1.0 1.0 0.00 0.00 0.00 50 1013.1
20260831014230 80 82 0.0 2.0 0.00 0.00 0.00 53 1013.2
20260831013732 81 82 1.0 2.0 0.00 0.00 0.00 58 1013.2
20260831013231 81 82 1.0 4.0 0.00 0.00 0.00 56 1013.3
20260831012732 81 82 2.0 4.0 0.00 0.00 0.00 54 1013.3
20260831012231 82 82 2.0 4.0 0.00 0.00 0.00 52 1013.3
20260831011953 83 82 2.0 4.0 0.00 0.00 0.00 49 1013.3
20260831011232 83 85 3.0 4.0 0.00 0.00 0.00 45 1013.3
20260831010732 83 86 2.0 4.0 0.00 0.00 0.00 45 1013.3
20260831010232 83 86 2.0 4.0 0.00 0.00 0.00 46 1013.3
20260831005732 83 86 3.0 5.0 0.00 0.00 0.00 45 1013.4
20260831005233 83 76 4.0 5.0 0.00 0.00 0.00 45 1013.4
20260831004732 83 90 3.0 5.0 0.00 0.00 0.00 44 1013.4
20260831004233 83 90 3.0 5.0 0.00 0.00 0.00 43 1013.4
20260831003955 83 92 3.0 5.0 0.00 0.00 0.00 45 1013.4
20260831003231 83 87 3.0 6.0 0.00 0.00 0.00 48 1013.4
20260831002732 83 73 4.0 6.0 0.00 0.00 0.00 48 1013.5
20260831002232 83 85 4.0 7.0 0.00 0.00 0.00 50 1013.5
20260831001732 84 82 4.0 7.0 0.00 0.00 0.00 50 1013.4
20260831001233 84 79 5.0 7.0 0.00 0.00 0.00 50 1013.5
20260831000733 85 92 4.0 7.0 0.00 0.00 0.00 48 1013.5
20260831000233 85 96 5.0 7.0 0.00 0.00 0.00 50 1013.5
20260830235952 86 73 5.0 7.0 0.00 0.00 0.00 47 1013.5
20260830235234 86 76 4.0 7.0 0.00 0.00 0.00 47 1013.6
20260830234956 86 107 3.0 6.0 0.00 0.00 0.00 46 1013.6
20260830234612 86 104 3.0 9.0 0.00 0.00 0.00 47 1013.7
20260830234604 86 75 5.0 9.0 0.00 0.00 0.00 47 1013.8
20260830234600 86 80 4.0 9.0 0.00 0.00 0.00 47 1013.7
20260830232732 87 96 4.0 9.0 0.00 0.00 0.00 45 1013.8
20260830232232 88 83 5.0 9.0 0.00 0.00 0.00 44 1013.8
20260830231951 88 93 4.0 9.0 0.00 0.00 0.00 45 1013.9
20260830231233 88 93 3.0 7.0 0.00 0.00 0.00 45 1014.0
20260830230731 88 93 5.0 7.0 0.00 0.00 0.00 43 1013.9
20260830230227 88 111 2.0 5.0 0.00 0.00 0.00 44 1014.0
20260830225729 88 123 3.0 5.0 0.00 0.00 0.00 44 1014.1
20260830225223 89 76 4.0 5.0 0.00 0.00 0.00 42 1014.1
20260830224718 89 92 3.0 6.0 0.00 0.00 0.00 43 1014.2
20260830224216 89 113 4.0 6.0 0.00 0.00 0.00 42 1014.3
20260830223702 89 117 3.0 7.0 0.00 0.00 0.00 42 1014.3
20260830223204 89 127 2.0 7.0 0.00 0.00 0.00 42 1014.4
20260830222701 89 99 4.0 7.0 0.00 0.00 0.00 42 1014.4
20260830222151 88 90 3.0 9.0 0.00 0.00 0.00 43 1014.4
20260830221651 89 94 5.0 9.0 0.00 0.00 0.00 42 1014.4
20260830221148 89 113 5.0 9.0 0.00 0.00 0.00 41 1014.5
20260830220647 89 111 4.0 9.0 0.00 0.00 0.00 42 1014.5
20260830220147 90 111 4.0 7.0 0.00 0.00 0.00 42 1014.6
20260830215646 89 142 2.0 10.0 0.00 0.00 0.00 43 1014.7
20260830215147 89 96 4.0 10.0 0.00 0.00 0.00 43 1014.7
20260830214646 89 127 2.0 5.0 0.00 0.00 0.00 43 1014.8
20260830214147 88 123 3.0 5.0 0.00 0.00 0.00 45 1014.9
20260830213646 87 124 3.0 6.0 0.00 0.00 0.00 46 1015.1
20260830213146 86 121 3.0 6.0 0.00 0.00 0.00 47 1015.1
20260830212646 86 141 3.0 11.0 0.00 0.00 0.00 48 1015.1
20260830212146 85 96 7.0 11.0 0.00 0.00 0.00 49 1015.3
20260830211646 84 114 4.0 10.0 0.00 0.00 0.00 51 1015.3
20260830211146 85 85 6.0 10.0 0.00 0.00 0.00 51 1015.4
20260830210645 84 103 5.0 9.0 0.00 0.00 0.00 52 1015.4
20260830210146 83 96 3.0 9.0 0.00 0.00 0.00 54 1015.5
20260830205644 83 79 4.0 10.0 0.00 0.00 0.00 55 1015.5
20260830205145 83 76 7.0 11.0 0.00 0.00 0.00 54 1015.6
20260830204644 83 87 7.0 11.0 0.00 0.00 0.00 54 1015.6
20260830204404 83 66 5.0 11.0 0.00 0.00 0.00 54 1015.5
20260830203644 84 97 7.0 10.0 0.00 0.00 0.00 53 1015.6
20260830203143 84 99 6.0 9.0 0.00 0.00 0.00 52 1015.6
20260830202643 85 94 5.0 7.0 0.00 0.00 0.00 50 1015.6
20260830202143 85 142 4.0 10.0 0.00 0.00 0.00 51 1015.6
20260830201643 85 96 6.0 10.0 0.00 0.00 0.00 49 1015.6
20260830201143 86 96 3.0 7.0 0.00 0.00 0.00 52 1015.4
20260830200902 86 93 4.0 7.0 0.00 0.00 0.00 52 1015.5
20260830200143 86 103 4.0 9.0 0.00 0.00 0.00 52 1015.6
20260830195645 86 103 4.0 9.0 0.00 0.00 0.00 53 1015.7
20260830195143 86 116 3.0 5.0 0.00 0.00 0.00 54 1015.6
20260830194644 86 113 4.0 6.0 0.00 0.00 0.00 56 1015.7
20260830194408 85 110 3.0 6.0 0.00 0.00 0.00 58 1015.6
20260830193644 85 90 3.0 6.0 0.00 0.00 0.00 59 1015.6
20260830193143 84 109 2.0 5.0 0.00 0.00 0.00 60 1015.7
20260830192903 84 155 3.0 5.0 0.00 0.00 0.00 60 1015.7
20260830192409 83 137 2.0 5.0 0.00 0.00 0.00 62 1015.9
20260830191642 83 131 2.0 6.0 0.00 0.00 0.00 62 1015.9
20260830191142 83 87 3.0 6.0 0.00 0.00 0.00 63 1015.9
20260830190643 82 102 5.0 6.0 0.00 0.00 0.00 62 1015.9
20260830190141 82 94 3.0 6.0 0.00 0.00 0.00 63 1015.9
20260830185642 82 83 4.0 6.0 0.00 0.00 0.00 64 1015.8
20260830185141 82 109 4.0 6.0 0.00 0.00 0.00 64 1015.8
20260830184642 81 83 4.0 6.0 0.00 0.00 0.00 66 1015.8
20260830184141 80 130 3.0 7.0 0.00 0.00 0.00 66 1015.8
20260830183642 80 117 2.0 7.0 0.00 0.00 0.00 68 1015.9
20260830183142 79 90 5.0 7.0 0.00 0.00 0.00 68 1015.9
20260830182643 78 79 5.0 7.0 0.00 0.00 0.00 69 1016.0
20260830182141 78 87 4.0 10.0 0.00 0.00 0.00 69 1016.1
20260830181643 79 44 6.0 10.0 0.00 0.00 0.00 68 1016.1
20260830181142 79 124 2.0 9.0 0.00 0.00 0.00 68 1016.0
20260830181121 79 99 3.0 9.0 0.00 0.00 0.00 67 1016.1
20260830180141 80 137 3.0 7.0 0.00 0.00 0.00 67 1016.0
20260830175859 80 92 5.0 9.0 0.00 0.00 0.00 68 1015.9
20260830175406 79 99 4.0 9.0 0.00 0.00 0.00 68 1015.7
20260830174642 79 117 4.0 7.0 0.00 0.00 0.00 68 1015.7
20260830174140 79 76 4.0 6.0 0.00 0.00 0.00 69 1015.5
20260830173642 79 117 2.0 4.0 0.00 0.00 0.00 69 1015.6
20260830173142 78 130 2.0 4.0 0.00 0.00 0.00 70 1015.5
20260830172642 78 111 2.0 5.0 0.00 0.00 0.00 70 1015.5
20260830172141 78 104 2.0 5.0 0.00 0.00 0.00 69 1015.5
20260830171642 78 100 3.0 5.0 0.00 0.00 0.00 69 1015.5
20260830171141 79 130 2.0 5.0 0.00 0.00 0.00 69 1015.5
20260830170641 79 128 3.0 5.0 0.00 0.00 0.00 68 1015.4
20260830170140 79 103 1.0 4.0 0.00 0.00 0.00 68 1015.4
20260830165906 79 103 2.0 4.0 0.00 0.00 0.00 68 1015.4
20260830165139 79 104 2.0 5.0 0.00 0.00 0.00 68 1015.4
20260830164641 79 107 2.0 5.0 0.00 0.00 0.00 68 1015.4
20260830164139 79 107 2.0 5.0 0.00 0.00 0.00 68 1015.4
20260830163900 79 87 3.0 6.0 0.00 0.00 0.00 69 1015.4
20260830163357 78 99 3.0 6.0 0.00 0.00 0.00 70 1015.3
20260830162903 77 102 2.0 3.0 0.00 0.00 0.00 70 1015.2
20260830162139 77 76 0.0 3.0 0.00 0.00 0.00 71 1015.2
20260830161904 77 79 1.0 3.0 0.00 0.00 0.00 71 1015.3
20260830161139 76 114 1.0 4.0 0.00 0.00 0.00 71 1015.4
20260830160640 76 114 2.0 5.0 0.00 0.00 0.00 71 1015.4
20260830160357 76 103 3.0 5.0 0.00 0.00 0.00 71 1015.4
20260830155638 76 86 2.0 5.0 0.00 0.00 0.00 72 1015.5
20260830155137 75 114 2.0 4.0 0.00 0.00 0.00 73 1015.4
20260830154638 75 124 2.0 4.0 0.00 0.00 0.00 73 1015.3
20260830154136 74 111 2.0 4.0 0.00 0.00 0.00 74 1015.3
20260830153640 74 104 1.0 4.0 0.00 0.00 0.00 74 1015.2
20260830153137 73 86 2.0 5.0 0.00 0.00 0.00 73 1015.1
20260830152903 73 68 3.0 5.0 0.00 0.00 0.00 73 1015.1
20260830152355 72 75 3.0 4.0 0.00 0.00 0.00 75 1015.0
20260830151638 72 80 2.0 4.0 0.00 0.00 0.00 76 1015.0
20260830151137 71 85 0.0 2.0 0.00 0.00 0.00 78 1015.0
20260830150903 71 85 0.0 3.0 0.00 0.00 0.00 78 1015.0
20260830150138 70 85 2.0 3.0 0.00 0.00 0.00 78 1015.0
20260830145910 70 48 1.0 2.0 0.00 0.00 0.00 78 1014.8
20260830145137 70 48 0.0 2.0 0.00 0.00 0.00 78 1014.7
20260830144637 69 48 1.0 2.0 0.00 0.00 0.00 78 1014.6
20260830144137 70 48 1.0 2.0 0.00 0.00 0.00 78 1014.5
20260830143636 70 48 1.0 3.0 0.00 0.00 0.00 78 1014.5
20260830143137 70 48 0.0 4.0 0.00 0.00 0.00 78 1014.6
20260830142635 70 48 2.0 4.0 0.00 0.00 0.00 78 1014.6
20260830142135 70 72 3.0 4.0 0.00 0.00 0.00 77 1014.5
20260830141635 69 73 2.0 4.0 0.00 0.00 0.00 77 1014.6
20260830141135 69 52 2.0 4.0 0.00 0.00 0.00 76 1014.5
20260830140636 69 52 2.0 5.0 0.00 0.00 0.00 76 1014.5
20260830140136 69 52 3.0 5.0 0.00 0.00 0.00 76 1014.4
20260830135636 69 42 3.0 4.0 0.00 0.00 0.00 74 1014.3
20260830135135 69 1 3.0 3.0 0.00 0.00 0.00 74 1014.2
20260830134635 69 0 2.0 3.0 0.00 0.00 0.00 75 1014.2
20260830134135 69 341 0.0 2.0 0.00 0.00 0.00 74 1014.1
20260830133636 69 341 1.0 2.0 0.00 0.00 0.00 74 1014.1
20260830133135 69 341 0.0 2.0 0.00 0.00 0.00 74 1014.0
20260830132635 69 341 1.0 2.0 0.00 0.00 0.00 73 1014.0
20260830132135 69 341 2.0 2.0 0.00 0.00 0.00 73 1013.9
20260830131635 70 341 1.0 2.0 0.00 0.00 0.00 74 1013.8
20260830131134 70 341 2.0 2.0 0.00 0.00 0.00 75 1013.7
20260830130634 70 341 2.0 2.0 0.00 0.00 0.00 74 1013.7
20260830130135 70 341 0.0 1.0 0.00 0.00 0.00 74 1013.7
20260830125633 70 341 0.0 2.0 0.00 0.00 0.00 72 1013.7
20260830125133 70 341 0.0 2.0 0.00 0.00 0.00 71 1013.7
20260830124633 71 341 1.0 2.0 0.00 0.00 0.00 72 1013.6
20260830124132 71 341 1.0 2.0 0.00 0.00 0.00 72 1013.5
20260830123633 71 341 1.0 2.0 0.00 0.00 0.00 72 1013.3
20260830123132 71 341 0.0 3.0 0.00 0.00 0.00 66 1013.2
20260830122632 70 341 2.0 3.0 0.00 0.00 0.00 61 1013.3
20260830122132 70 341 1.0 3.0 0.00 0.00 0.00 61 1013.3
20260830121633 70 341 0.0 4.0 0.00 0.00 0.00 66 1013.2
20260830121132 70 341 3.0 4.0 0.00 0.00 0.00 71 1013.3
20260830120632 70 341 3.0 4.0 0.00 0.00 0.00 73 1013.3
20260830120132 70 45 2.0 3.0 0.00 0.00 0.00 73 1013.3
20260830115631 70 45 2.0 3.0 0.00 0.00 0.00 72 1013.3
20260830115131 71 45 2.0 3.0 0.00 0.00 0.00 72 1013.3
20260830114632 71 45 2.0 3.0 0.00 0.00 0.00 71 1013.2
20260830114131 71 45 1.0 3.0 0.00 0.00 0.00 68 1013.2
20260830113631 71 45 1.0 2.0 0.00 0.00 0.00 68 1013.3
20260830113132 71 45 0.0 3.0 0.00 0.00 0.00 68 1013.3
20260830112631 71 45 2.0 4.0 0.00 0.00 0.00 68 1013.2
20260830112131 71 45 2.0 4.0 0.00 0.00 0.00 69 1013.2
20260830111632 71 45 2.0 3.0 0.00 0.00 0.00 67 1013.2
20260830111131 70 45 2.0 4.0 0.00 0.00 0.00 66 1013.0
20260830110628 71 45 0.0 4.0 0.00 0.00 0.00 66 1013.2